Location: ?????????
(53.2086°N, 54.0693°E)
Time: 10:35:46
(UTC+00:00)

Cosmos 1844 Rocket - Pass Details

Date: 08 December 2019
Orbit: 825 x 844 km, 71.0° (Epoch: 21 January)

Event Time Altitude Azimuth Distance (km) Brightness Sun altitude
Rises 13:12:36 0° 324° (NW) 3,376 6.0 -9.2°
Reaches altitude 10° 13:15:10 10° 318° (NW) 2,439 5.3 -9.5°
Maximum altitude 13:20:18 39° 251° (WSW) 1,217 4.3 -10.2°
Drops below altitude 10° 13:25:27 10° 183° (S) 2,432 5.5 -10.9°
Sets 13:28:00 0° 176° (S) 3,364 6.1 -11.3°
